Location: Saint-Denis
(20.8800°S, 55.4481°E)
Time: 05:32:24
(UTC+04:00)

Tiangong - Pass Details

Date: 27 January 2026
Orbit: 386 x 391 km, 41.5° (Epoch: 15 February)

Event Time Altitude Azimuth Distance (km) Brightness Sun altitude
Rises 19:52:53 0° 221° (SW) 2,280 3.1 -11.4°
Reaches altitude 10° 19:55:08 10° 209° (SSW) 1,420 1.6 -11.9°
Maximum altitude 19:58:00 29° 146° (SE) 735 -0.8 -12.5°
Enters shadow 19:59:35 19° 98° (E) 993 -0.6 -12.8°
